FW6620 Weather Reports


Display with metric or nautical units.
time (UTC)temp
F
wind
direction
speed
MPH
gust
MPH
rain 1hr
in
rain 24hr
in
rain mn
in
humidity
%
barometer
mb
20260904172047 85 0 0.0 3.0 0.00 0.00 0.00 78 1015.7
20260904171619 85 60 0.0 3.0 0.00 0.00 0.00 78 1015.8
20260904171046 85 0 0.0 3.0 0.00 0.00 0.00 78 1015.9
20260904170546 85 0 0.0 3.0 0.00 0.00 0.00 79 1015.8
20260904170059 84 0 0.0 3.0 0.00 0.00 0.00 79 1015.8
20260904165546 84 0 0.0 3.0 0.00 0.00 0.00 79 1015.8
20260904165046 84 0 0.0 3.0 0.00 0.00 0.00 80 1015.7
20260904164607 84 0 0.0 3.0 0.00 0.00 0.00 80 1015.7
20260904164047 84 0 1.0 4.0 0.00 0.00 0.00 80 1015.7
20260904163546 84 0 0.0 4.0 0.00 0.00 0.00 81 1015.7
20260904163101 84 0 0.0 4.0 0.00 0.00 0.00 81 1015.7
20260904162546 84 0 0.0 4.0 0.00 0.00 0.00 82 1015.6
20260904162045 83 63 2.0 4.0 0.00 0.00 0.00 81 1015.7
20260904161611 83 0 0.0 2.0 0.00 0.00 0.00 82 1015.6
20260904161046 83 0 0.0 2.0 0.00 0.00 0.00 83 1015.6
20260904160546 83 0 0.0 3.0 0.00 0.00 0.00 83 1015.5
20260904160107 83 0 0.0 4.0 0.00 0.00 0.00 84 1015.4
20260904155550 82 62 1.0 6.0 0.00 0.00 0.00 84 1015.4
20260904155049 82 53 0.0 6.0 0.00 0.00 0.00 85 1015.4
20260904154608 82 0 0.0 2.0 0.00 0.00 0.00 86 1015.4
20260904154049 82 0 0.0 2.0 0.00 0.00 0.00 86 1015.4
20260904153546 82 0 0.0 3.0 0.00 0.00 0.00 87 1015.4
20260904153115 81 0 0.0 3.0 0.00 0.00 0.00 86 1015.4
20260904152546 81 0 0.0 2.0 0.00 0.00 0.00 87 1015.4
20260904152045 81 0 0.0 3.0 0.00 0.00 0.00 87 1015.3
20260904151558 81 0 0.0 3.0 0.00 0.00 0.00 87 1015.3
20260904151046 81 0 0.0 2.0 0.00 0.00 0.00 87 1015.3
20260904150546 81 63 0.0 2.0 0.00 0.00 0.00 88 1015.4
20260904150104 81 0 0.0 2.0 0.00 0.00 0.00 88 1015.3
20260904145546 81 0 0.0 2.0 0.00 0.00 0.00 88 1015.3
20260904145046 81 0 0.0 2.0 0.00 0.00 0.00 88 1015.3
20260904144614 81 0 0.0 3.0 0.00 0.00 0.00 88 1015.3
20260904144046 81 0 0.0 3.0 0.00 0.00 0.00 87 1015.3
20260904143546 81 0 0.0 2.0 0.00 0.00 0.00 87 1015.3
20260904143121 81 0 0.0 1.0 0.00 0.00 0.00 87 1015.3
20260904142546 81 0 0.0 1.0 0.00 0.00 0.00 87 1015.3
20260904142045 81 0 0.0 1.0 0.00 0.00 0.00 87 1015.4
20260904141604 81 0 0.0 2.0 0.00 0.00 0.00 87 1015.3
20260904141045 81 0 0.0 2.0 0.00 0.00 0.00 87 1015.4
20260904140550 81 0 0.0 2.0 0.00 0.00 0.00 87 1015.3
20260904140106 81 0 0.0 1.0 0.00 0.00 0.00 88 1015.4
20260904135546 81 0 0.0 2.0 0.00 0.00 0.00 88 1015.4
20260904135046 81 0 0.0 2.0 0.00 0.00 0.00 88 1015.3
20260904134604 81 0 0.0 1.0 0.00 0.00 0.00 88 1015.3
20260904134046 81 0 0.0 1.0 0.00 0.00 0.00 88 1015.3
20260904133546 81 0 0.0 1.0 0.00 0.00 0.00 88 1015.3
20260904133112 81 0 0.0 2.0 0.00 0.00 0.00 88 1015.2
20260904132547 81 0 0.0 2.0 0.00 0.00 0.00 88 1015.1
20260904132047 81 0 0.0 2.0 0.00 0.00 0.00 88 1015.1
20260904131555 80 0 0.0 2.0 0.00 0.00 0.00 88 1015.1
20260904131050 80 0 0.0 2.0 0.00 0.00 0.00 88 1015.1
20260904130549 80 0 0.0 2.0 0.00 0.00 0.00 88 1015.2
20260904130106 80 0 0.0 2.0 0.00 0.00 0.00 88 1015.1
20260904125546 80 0 0.0 2.0 0.00 0.00 0.00 88 1015.1
20260904125049 80 63 0.0 2.0 0.00 0.00 0.00 88 1014.9
20260904124555 80 0 0.0 3.0 0.00 0.00 0.00 88 1014.9
20260904124046 80 0 0.0 3.0 0.00 0.00 0.00 88 1014.9
20260904123546 80 0 0.0 3.0 0.00 0.00 0.00 88 1014.7
20260904123106 80 64 0.0 3.0 0.00 0.00 0.00 88 1014.6
20260904122546 80 0 0.0 2.0 0.00 0.00 0.00 88 1014.6
20260904122046 80 0 0.0 2.0 0.00 0.00 0.00 88 1014.5
20260904121600 80 0 0.0 3.0 0.00 0.00 0.00 88 1014.5
20260904121045 80 0 0.0 4.0 0.00 0.00 0.00 88 1014.4
20260904120545 80 0 0.0 4.0 0.00 0.00 0.00 88 1014.3
20260904120107 80 0 0.0 4.0 0.00 0.00 0.00 88 1014.2
20260904115545 80 0 0.0 3.0 0.00 0.00 0.00 88 1014.2
20260904115045 81 0 1.0 3.0 0.00 0.00 0.00 88 1014.2
20260904114557 81 69 0.0 4.0 0.00 0.00 0.00 87 1014.1
20260904114045 81 0 0.0 4.0 0.00 0.00 0.00 87 1014.1
20260904113547 81 71 0.0 4.0 0.00 0.00 0.00 87 1014.1
20260904113057 81 73 0.0 4.0 0.00 0.00 0.00 87 1014.0
20260904112546 81 64 0.0 4.0 0.00 0.00 0.00 87 1014.1
20260904112050 81 0 0.0 4.0 0.00 0.00 0.00 87 1014.0
20260904111601 81 0 0.0 4.0 0.00 0.00 0.00 87 1013.9
20260904111047 81 0 0.0 3.0 0.00 0.00 0.00 87 1013.9
20260904110546 81 0 0.0 4.0 0.00 0.00 0.00 87 1013.9
20260904110104 81 0 0.0 4.0 0.00 0.00 0.00 87 1014.0
20260904105545 81 76 1.0 4.0 0.00 0.00 0.00 87 1013.8
20260904105045 81 0 0.0 4.0 0.00 0.00 0.00 87 1013.8
20260904104557 81 55 1.0 4.0 0.00 0.00 0.00 87 1013.7
20260904104046 81 0 0.0 2.0 0.00 0.00 0.00 87 1013.7
20260904103550 81 0 0.0 2.0 0.00 0.00 0.00 87 1013.8
20260904103105 81 0 0.0 2.0 0.00 0.00 0.00 87 1013.8
20260904102546 81 0 0.0 4.0 0.00 0.00 0.00 87 1013.7
20260904102046 81 0 0.0 6.0 0.00 0.00 0.00 87 1013.7
20260904101603 81 67 1.0 6.0 0.00 0.00 0.00 87 1013.6
20260904101046 81 52 0.0 4.0 0.00 0.00 0.00 87 1013.6
20260904100549 81 0 0.0 4.0 0.00 0.00 0.00 87 1013.6
20260904100057 81 0 0.0 6.0 0.00 0.00 0.00 87 1013.6
20260904095547 81 0 0.0 6.0 0.00 0.00 0.00 86 1013.6
20260904095047 81 0 0.0 2.0 0.00 0.00 0.00 86 1013.6
20260904094559 81 64 0.0 4.0 0.00 0.00 0.00 86 1013.5
20260904094046 81 0 0.0 4.0 0.00 0.00 0.00 86 1013.5
20260904093549 81 64 0.0 3.0 0.00 0.00 0.00 86 1013.5
20260904093105 81 66 0.0 2.0 0.00 0.00 0.00 86 1013.5
20260904092545 81 68 0.0 2.0 0.00 0.00 0.00 86 1013.4
20260904092047 81 0 0.0 3.0 0.00 0.00 0.00 86 1013.5
20260904091559 81 0 0.0 3.0 0.00 0.00 0.00 86 1013.5
20260904091045 81 68 0.0 3.0 0.00 0.00 0.00 86 1013.4
20260904090545 81 85 0.0 3.0 0.00 0.00 0.00 86 1013.4
20260904090058 81 67 0.0 2.0 0.00 0.00 0.00 86 1013.4
20260904085545 81 0 0.0 2.0 0.00 0.00 0.00 86 1013.4
20260904085045 81 0 0.0 3.0 0.00 0.00 0.00 86 1013.4
20260904084559 81 67 0.0 6.0 0.00 0.00 0.00 86 1013.5
20260904084047 81 66 0.0 6.0 0.00 0.00 0.00 86 1013.4
20260904083549 81 54 1.0 6.0 0.00 0.00 0.00 85 1013.4
20260904083104 81 0 0.0 5.0 0.00 0.00 0.00 86 1013.5
20260904082546 81 0 0.0 5.0 0.00 0.00 0.00 85 1013.5
20260904082046 81 0 0.0 3.0 0.00 0.00 0.00 85 1013.4
20260904081559 81 87 1.0 3.0 0.00 0.00 0.00 85 1013.5
20260904081045 81 0 0.0 4.0 0.00 0.00 0.00 85 1013.5
20260904080547 81 0 0.0 7.0 0.00 0.00 0.00 85 1013.4
20260904080116 81 61 0.0 7.0 0.00 0.00 0.00 85 1013.5
20260904075546 81 0 1.0 7.0 0.00 0.00 0.00 85 1013.5
20260904075046 81 0 1.0 6.0 0.00 0.00 0.00 85 1013.4
20260904074553 81 0 0.0 9.0 0.00 0.00 0.00 85 1013.5
20260904074050 81 0 1.0 9.0 0.00 0.00 0.00 84 1013.6
20260904073546 81 0 1.0 4.0 0.00 0.00 0.00 84 1013.7
20260904073111 82 0 0.0 4.0 0.00 0.00 0.00 84 1013.7
20260904072545 81 0 0.0 4.0 0.00 0.00 0.00 84 1013.7
20260904072047 81 0 0.0 4.0 0.00 0.00 0.00 84 1013.8
20260904071602 82 0 0.0 7.0 0.00 0.00 0.00 84 1013.8
20260904071045 82 0 1.0 7.0 0.00 0.00 0.00 83 1013.8
20260904070547 82 52 1.0 6.0 0.00 0.00 0.00 83 1013.8
20260904065546 82 0 0.0 4.0 0.00 0.00 0.00 83 1013.9
20260904065045 82 0 1.0 6.0 0.00 0.00 0.00 82 1014.0
20260904064554 82 0 1.0 6.0 0.00 0.00 0.00 82 1013.9
20260904064045 82 60 1.0 6.0 0.00 0.00 0.00 82 1014.0
20260904063546 82 66 0.0 4.0 0.00 0.00 0.00 82 1013.9
20260904063115 82 0 1.0 4.0 0.00 0.00 0.00 82 1013.8
20260904062545 82 66 1.0 4.0 0.00 0.00 0.00 81 1013.8
20260904062047 82 0 0.0 6.0 0.00 0.00 0.00 81 1013.8
20260904061558 82 65 1.0 6.0 0.00 0.00 0.00 81 1013.9
20260904061049 82 64 0.0 6.0 0.00 0.00 0.00 81 1013.8
20260904060548 82 0 1.0 6.0 0.00 0.00 0.00 81 1013.9
20260904055548 82 56 0.0 6.0 0.00 0.00 0.00 81 1013.9
20260904055045 82 0 0.0 6.0 0.00 0.00 0.00 80 1013.9
20260904054555 82 61 0.0 4.0 0.00 0.00 0.00 80 1013.9
20260904054046 82 68 0.0 4.0 0.00 0.00 0.00 80 1014.0
20260904053546 82 0 0.0 7.0 0.00 0.00 0.00 80 1013.9
20260904053130 82 61 0.0 7.0 0.00 0.00 0.00 80 1013.8
20260904052546 82 63 0.0 4.0 0.00 0.00 0.00 80 1013.8
20260904052046 82 64 0.0 4.0 0.00 0.00 0.00 80 1013.8
20260904051558 82 62 1.0 4.0 0.00 0.00 0.00 80 1013.7
20260904051045 82 0 0.0 7.0 0.00 0.00 0.00 80 1013.8
20260904050545 82 58 1.0 7.0 0.00 0.00 0.00 80 1013.6
20260904050058 82 62 0.0 4.0 0.00 0.00 0.00 80 1013.6
20260904045543 82 60 0.0 6.0 0.00 0.00 0.00 80 1013.7
20260904045045 82 67 0.0 6.0 0.00 0.00 0.00 79 1013.6
20260904044605 82 78 1.0 4.0 0.00 0.00 0.00 79 1013.6
20260904044045 82 0 1.0 6.0 0.00 0.00 0.00 79 1013.6
20260904043545 82 0 1.0 6.0 0.00 0.00 0.00 79 1013.6
20260904043103 82 0 0.0 6.0 0.00 0.00 0.00 79 1013.6
20260904042546 82 0 0.0 6.0 0.00 0.00 0.00 79 1013.6
20260904042049 83 64 0.0 4.0 0.00 0.00 0.00 79 1013.6
20260904041559 83 0 0.0 6.0 0.00 0.00 0.00 78 1013.6
20260904041045 83 0 0.0 6.0 0.00 0.00 0.00 79 1013.6
20260904040545 83 70 0.0 6.0 0.00 0.00 0.00 78 1013.5
20260904040100 83 0 0.0 4.0 0.00 0.00 0.00 78 1013.6
20260904035546 83 0 0.0 4.0 0.00 0.00 0.00 78 1013.5
20260904035045 83 57 0.0 4.0 0.00 0.00 0.00 78 1013.4
20260904034558 83 69 0.0 6.0 0.00 0.00 0.00 78 1013.5
20260904034045 83 0 1.0 6.0 0.00 0.00 0.00 78 1013.5
20260904033545 83 0 0.0 4.0 0.00 0.00 0.00 78 1013.4
20260904033100 83 0 0.0 3.0 0.00 0.00 0.00 77 1013.5
20260904032544 83 67 0.0 3.0 0.00 0.00 0.00 77 1013.4
20260904032049 83 0 0.0 3.0 0.00 0.00 0.00 77 1013.3
20260904031557 83 0 0.0 4.0 0.00 0.00 0.00 77 1013.3
20260904031047 83 0 0.0 4.0 0.00 0.00 0.00 76 1013.3
20260904030547 83 60 1.0 4.0 0.00 0.00 0.00 76 1013.3
20260904025548 84 0 0.0 4.0 0.00 0.00 0.00 75 1013.2
20260904025047 84 0 1.0 4.0 0.00 0.00 0.00 75 1013.2
20260904024601 84 0 1.0 4.0 0.00 0.00 0.00 74 1013.2
20260904024048 84 0 1.0 4.0 0.00 0.00 0.00 74 1013.0
20260904023548 84 0 0.0 2.0 0.00 0.00 0.00 73 1012.9
20260904023059 85 81 0.0 2.0 0.00 0.00 0.00 73 1013.0
20260904022548 85 0 0.0 6.0 0.00 0.00 0.00 73 1012.9
20260904022048 85 78 0.0 6.0 0.00 0.00 0.00 72 1012.9
20260904021610 85 84 1.0 3.0 0.00 0.00 0.00 72 1012.8
20260904021047 85 84 0.0 3.0 0.00 0.00 0.00 71 1012.7
20260904020547 85 83 0.0 3.0 0.00 0.00 0.00 71 1012.6
20260904020058 85 83 0.0 6.0 0.00 0.00 0.00 70 1012.6
20260904015547 86 0 1.0 6.0 0.00 0.00 0.00 70 1012.5
20260904015049 86 0 0.0 4.0 0.00 0.00 0.00 70 1012.4
20260904014604 86 63 0.0 6.0 0.00 0.00 0.00 70 1012.3
20260904014047 86 58 0.0 6.0 0.00 0.00 0.00 69 1012.2
20260904013546 86 0 0.0 4.0 0.00 0.00 0.00 69 1012.1
20260904013121 86 0 0.0 6.0 0.00 0.00 0.00 69 1012.0
20260904012549 87 0 0.0 6.0 0.00 0.00 0.00 68 1011.9
20260904012048 87 64 0.0 3.0 0.00 0.00 0.00 68 1011.9
20260904011642 87 0 0.0 3.0 0.00 0.00 0.00 68 1011.9
20260904011047 87 0 0.0 3.0 0.00 0.00 0.00 68 1011.9
20260904010547 87 64 0.0 4.0 0.00 0.00 0.00 68 1011.9
20260904010057 87 0 0.0 4.0 0.00 0.00 0.00 67 1012.0
20260904005550 87 108 0.0 4.0 0.00 0.00 0.00 67 1011.9
20260904005047 88 74 1.0 4.0 0.00 0.00 0.00 66 1011.9
20260904004553 88 74 1.0 3.0 0.00 0.00 0.00 66 1012.0
20260904004047 88 0 0.0 3.0 0.00 0.00 0.00 67 1012.0
20260904003546 88 78 1.0 3.0 0.00 0.00 0.00 66 1012.0
20260904003100 88 0 0.0 7.0 0.00 0.00 0.00 66 1012.0
20260904002547 89 68 0.0 7.0 0.00 0.00 0.00 65 1011.9
20260904002047 89 78 0.0 6.0 0.00 0.00 0.00 65 1012.0
20260904001559 89 85 2.0 7.0 0.00 0.00 0.00 65 1011.9
20260904001046 89 0 0.0 7.0 0.00 0.00 0.00 65 1011.8
20260904000547 89 65 1.0 9.0 0.00 0.00 0.00 64 1011.8
20260904000056 90 64 2.0 9.0 0.00 0.00 0.00 64 1011.8
20260903235548 90 66 0.0 8.0 0.00 0.00 0.00 64 1011.7
20260903235047 90 70 2.0 8.0 0.00 0.00 0.00 63 1011.8
20260903234604 90 53 1.0 7.0 0.00 0.00 0.00 63 1011.7
20260903234047 90 47 0.0 4.0 0.00 0.00 0.00 64 1011.8
20260903233547 91 0 1.0 6.0 0.00 0.00 0.00 65 1011.6
20260903233100 91 120 1.0 6.0 0.00 0.00 0.00 64 1011.4
20260903232546 91 66 0.0 6.0 0.00 0.00 0.00 65 1011.4
20260903232047 91 64 1.0 9.0 0.00 0.00 0.00 65 1011.5
20260903231557 92 51 1.0 9.0 0.00 0.00 0.00 64 1011.4
20260903231046 92 77 1.0 6.0 0.00 0.00 0.00 63 1011.4
20260903230552 93 74 1.0 8.0 0.00 0.00 0.00 63 1011.4
20260903230057 93 0 1.0 8.0 0.00 0.00 0.00 62 1011.3
20260903225547 94 166 2.0 8.0 0.00 0.00 0.00 60 1011.3
20260903225046 94 43 1.0 5.0 0.00 0.00 0.00 58 1010.9
20260903224612 94 132 1.0 7.0 0.00 0.00 0.00 56 1011.0
20260903224049 94 213 0.0 7.0 0.00 0.00 0.00 54 1010.9
20260903223547 94 61 1.0 6.0 0.00 0.00 0.00 55 1010.9
20260903223100 94 72 2.0 7.0 0.00 0.00 0.00 54 1010.8
20260903222546 95 0 2.0 7.0 0.00 0.00 0.00 54 1010.8
20260903222047 95 64 1.0 6.0 0.00 0.00 0.00 54 1010.7
20260903221605 95 137 1.0 7.0 0.00 0.00 0.00 53 1010.7
20260903221047 96 80 2.0 7.0 0.00 0.00 0.00 53 1010.7
20260903220546 96 61 1.0 6.0 0.00 0.00 0.00 53 1010.7
20260903220105 97 73 1.0 8.0 0.00 0.00 0.00 52 1010.7
20260903215547 97 101 1.0 8.0 0.00 0.00 0.00 53 1010.7
20260903215046 97 95 0.0 3.0 0.00 0.00 0.00 52 1010.7
20260903214604 97 0 0.0 4.0 0.00 0.00 0.00 51 1010.6
20260903214050 98 81 0.0 4.0 0.00 0.00 0.00 50 1010.7
20260903213549 98 104 0.0 3.0 0.00 0.00 0.00 51 1010.7
20260903213101 98 153 0.0 2.0 0.00 0.00 0.00 50 1010.7
20260903212546 98 0 0.0 3.0 0.00 0.00 0.00 52 1010.8
20260903212047 98 0 0.0 4.0 0.00 0.00 0.00 51 1010.9
20260903211559 98 0 0.0 4.0 0.00 0.00 0.00 51 1010.8
20260903211046 98 57 0.0 4.0 0.00 0.00 0.00 50 1010.8
20260903210544 99 0 0.0 3.0 0.00 0.00 0.00 50 1010.9
20260903210141 99 0 0.0 3.0 0.00 0.00 0.00 50 1011.0
20260903205547 99 71 1.0 4.0 0.00 0.00 0.00 51 1011.0
20260903205048 99 66 0.0 4.0 0.00 0.00 0.00 52 1011.0
20260903204607 99 66 1.0 4.0 0.00 0.00 0.00 51 1011.2
20260903204047 98 54 1.0 3.0 0.00 0.00 0.00 51 1011.2
20260903203548 98 56 0.0 4.0 0.00 0.00 0.00 50 1011.3
20260903203100 99 0 0.0 4.0 0.00 0.00 0.00 51 1011.4
20260903202547 99 53 0.0 2.0 0.00 0.00 0.00 51 1011.5
20260903202048 99 53 0.0 3.0 0.00 0.00 0.00 49 1011.5
20260903201556 99 0 0.0 7.0 0.00 0.00 0.00 50 1011.6
20260903201047 99 0 1.0 7.0 0.00 0.00 0.00 48 1011.6
20260903200547 99 68 1.0 6.0 0.00 0.00 0.00 49 1011.7
20260903200117 99 0 1.0 6.0 0.00 0.00 0.00 50 1011.7
20260903195547 98 86 0.0 6.0 0.00 0.00 0.00 51 1011.7
20260903195050 98 66 0.0 6.0 0.00 0.00 0.00 51 1011.8
20260903194609 98 66 1.0 6.0 0.00 0.00 0.00 51 1011.9
20260903194046 98 60 0.0 6.0 0.00 0.00 0.00 52 1011.9
20260903193547 98 0 0.0 6.0 0.00 0.00 0.00 52 1011.9
20260903193058 98 53 1.0 4.0 0.00 0.00 0.00 52 1012.1
20260903192547 98 61 0.0 6.0 0.00 0.00 0.00 51 1012.2
20260903192046 98 0 1.0 8.0 0.00 0.00 0.00 52 1012.1
20260903191604 98 70 1.0 8.0 0.00 0.00 0.00 52 1012.2
20260903191048 98 0 2.0 4.0 0.00 0.00 0.00 54 1012.5
20260903190548 98 48 0.0 2.0 0.00 0.00 0.00 54 1012.5
20260903190058 98 0 1.0 3.0 0.00 0.00 0.00 53 1012.6
20260903185546 98 46 1.0 3.0 0.00 0.00 0.00 53 1012.7
20260903185047 97 0 1.0 6.0 0.00 0.00 0.00 53 1012.9
20260903184559 97 45 0.0 6.0 0.00 0.00 0.00 54 1012.8
20260903184050 97 43 1.0 6.0 0.00 0.00 0.00 53 1013.0
20260903183547 97 65 0.0 6.0 0.00 0.00 0.00 54 1013.1
20260903183108 97 64 1.0 6.0 0.00 0.00 0.00 55 1013.1
20260903182550 97 66 0.0 6.0 0.00 0.00 0.00 55 1013.3
20260903182047 97 0 1.0 6.0 0.00 0.00 0.00 55 1013.3
20260903181601 97 58 1.0 6.0 0.00 0.00 0.00 54 1013.4
20260903181046 97 85 1.0 6.0 0.00 0.00 0.00 56 1013.4
20260903180549 96 56 0.0 6.0 0.00 0.00 0.00 56 1013.4
20260903180058 96 0 1.0 6.0 0.00 0.00 0.00 57 1013.5
20260903175546 95 59 1.0 6.0 0.00 0.00 0.00 57 1013.5
20260903175050 95 78 0.0 4.0 0.00 0.00 0.00 59 1013.6
20260903174558 94 78 1.0 7.0 0.00 0.00 0.00 58 1013.5
20260903174047 94 54 1.0 10.0 0.00 0.00 0.00 59 1013.7
20260903173547 94 63 2.0 10.0 0.00 0.00 0.00 60 1013.7
20260903173055 94 0 1.0 7.0 0.00 0.00 0.00 60 1013.6
20260903172549 93 0 1.0 7.0 0.00 0.00 0.00 61 1013.8